[[{"header":{"parameterUnit":"m.s-1","parameterCategory":1,"la1":30.2991,"la2":30.254,"lo1":-89.0895,"lo2":-89.0444,"dy":0.0017,"dx":0.0017,"nx":28,"ny":28,"refTime":"2025-03-17T21:00:00:Z","depth":0,"parameterNumber":2,"parameterNumberName":"U-component_of_WINDS"},"data":[0,0,0,0,0,0,0,0,0,0,0,0,0,0,0,0,0,0,0,0,0,0,0,0,0,0,0,0,0,0,0,0,0,0,0,0,0,0,0,0,0,0,0,0,0,0,0,0,0,0,0,0,0,0,0,0,0,0,-1.7864,-1.7864,0,-1.7897,-1.7897,-1.7898,-1.7903,-1.7903,-1.7903,-1.7903,-1.7938,-1.7939,-1.794,0,0,0,0,0,0,0,0,0,0,0,0,0,-1.7807,-1.7808,-1.7864,-1.7864,-1.7864,-1.7897,-1.7897,-1.7898,-1.7903,-1.7903,-1.7903,-1.7902,-1.7937,-1.7939,-1.794,0,0,0,0,0,0,0,0,0,0,0,0,0,-1.7835,-1.7809,-1.7864,-1.7871,-1.7872,-1.7897,-1.7897,-1.7898,-1.7904,-1.7903,-1.7903,-1.7902,-1.7937,-1.7939,-1.7941,-1.796,0,0,-1.7946,-1.7947,0,0,0,0,0,0,0,0,-1.7834,-1.7837,-1.787,-1.7871,-1.7872,-1.7896,-1.789,-1.7919,-1.7904,-1.7892,-1.7903,-1.7902,-1.7924,-1.7927,-1.7934,-1.7962,-1.7963,-1.7946,-1.7947,-1.7948,-1.7949,0,0,0,0,0,0,0,-1.7832,-1.7836,-1.7877,-1.787,-1.7872,-1.7874,-1.7877,-1.7896,-1.791,-1.7893,-1.7893,-1.7897,-1.7925,-1.7932,-1.7935,-1.7964,-1.7946,-1.7948,-1.7949,-1.795,-1.801,-1.801,0,0,0,0,0,0,-1.7828,-1.7834,-1.7876,-1.7878,-1.7851,-1.7875,-1.7879,-1.7888,-1.791,-1.7913,-1.7897,-1.7897,-1.793,-1.7933,-1.7936,-1.7961,-1.7948,-1.795,-1.7951,-1.8009,-1.801,-1.801,0,0,0,0,0,0,-1.7827,-1.7832,-1.7874,-1.7856,-1.7862,-1.7876,-1.7887,-1.7889,-1.7897,-1.7913,-1.7916,-1.7902,-1.7929,-1.7934,-1.7954,-1.7962,-1.7951,-1.7952,-1.8009,-1.8009,-1.801,-1.8009,0,0,0,0,0,0,-1.7825,-1.7831,-1.7838,-1.7856,-1.7863,-1.7891,-1.7887,-1.789,-1.79,-1.79,-1.7919,-1.7921,-1.7929,-1.7951,-1.7956,-1.7964,-1.7954,-1.8008,-1.8009,-1.801,-1.8009,-1.801,-1.8011,0,0,0,0,0,-1.7823,-1.7837,-1.7839,-1.7844,-1.7872,-1.7891,-1.7895,-1.7904,-1.79,-1.7908,-1.7919,-1.7921,-1.7961,-1.7953,-1.7959,-1.7968,-1.8007,-1.8009,-1.801,-1.8008,-1.801,-1.8011,0,0,0,0,0,0,-1.782,-1.784,-1.7841,-1.7861,-1.7875,-1.7892,-1.7902,-1.7905,-1.792,-1.7919,-1.793,-1.7934,-1.7954,-1.7963,-1.7955,-1.7988,-1.7984,-1.7986,-1.7981,-1.7983,-1.7984,-1.7981,-1.7955,0,0,0,0,0,-1.7822,-1.7835,-1.7852,-1.7868,-1.7875,-1.7887,-1.7896,-1.7902,-1.7916,-1.7922,-1.7934,-1.7948,-1.7964,-1.7974,-1.7989,-1.8011,-1.8015,-1.8019,-1.8021,-1.8021,-1.8023,-1.8035,-1.8037,-1.8014,-1.8014,-1.8014,0,0,-1.7825,-1.7838,-1.7846,-1.7868,-1.7879,-1.7893,-1.7892,-1.7907,-1.7918,-1.7924,-1.7944,-1.7953,-1.797,-1.7991,-1.8001,-1.7999,-1.8031,-1.8023,-1.8023,-1.8025,-1.8037,-1.8039,-1.8041,-1.8015,-1.8015,-1.8015,0,0,-1.7839,-1.785,-1.7864,-1.7875,-1.7891,-1.79,-1.7903,-1.7921,-1.7927,-1.7947,-1.7952,-1.7966,-1.7992,-1.8004,-1.8014,-1.8033,-1.8035,-1.8038,-1.8043,-1.8055,-1.8057,-1.8059,-1.8065,-1.8068,-1.8039,-1.8039,-1.8039,0,-1.7841,-1.7863,-1.7871,-1.7887,-1.7896,-1.7902,-1.7917,-1.7928,-1.7949,-1.7955,-1.7953,-1.7987,-1.7999,-1.8023,-1.8027,-1.8035,-1.804,-1.8035,-1.8056,-1.8058,-1.8059,-1.8066,-1.8068,-1.8039,-1.8039,-1.8039,-1.8039,0,-1.7865,-1.788,-1.789,-1.7909,-1.792,-1.7935,-1.7947,-1.7957,-1.7962,-1.7971,-1.7991,-1.8006,-1.8024,-1.803,-1.8035,-1.8055,-1.8054,-1.8054,-1.805,-1.8062,-1.8068,-1.807,-1.804,-1.8039,-1.8039,-1.8039,0,0,-1.7877,-1.7901,-1.7904,-1.7913,-1.7932,-1.7944,-1.796,-1.7978,-1.7986,-1.8001,-1.8015,-1.8038,-1.8038,-1.8049,-1.8055,-1.8066,-1.808,-1.8064,-1.8065,-1.8066,-1.8102,-1.8102,-1.8104,-1.8082,-1.8082,-1.8083,-1.8101,0,-1.7892,-1.792,-1.7928,-1.7952,-1.7966,-1.7972,-1.7986,-1.7999,-1.8008,-1.8022,-1.8032,-1.8048,-1.8047,-1.8054,-1.8064,-1.8076,-1.8087,-1.8075,-1.8095,-1.8095,-1.809,-1.8108,-1.8107,-1.8123,-1.8103,-1.8104,-1.8104,0,-1.7914,-1.7928,-1.7953,-1.797,-1.7976,-1.7988,-1.8005,-1.8018,-1.8034,-1.804,-1.8052,-1.8058,-1.8076,-1.8071,-1.8095,-1.8087,-1.8096,-1.8103,-1.8104,-1.8105,-1.81,-1.811,-1.8129,-1.8131,-1.8108,-1.8108,-1.8107,0,-1.792,-1.7946,-1.7963,-1.7971,-1.7991,-1.8,-1.8009,-1.8024,-1.8034,-1.805,-1.8057,-1.8074,-1.8083,-1.8097,-1.8108,-1.8103,-1.8131,-1.8127,-1.8137,-1.8136,-1.8142,-1.8141,-1.8162,-1.8148,-1.8148,-1.8148,-1.8148,0,-1.7936,-1.7951,-1.7966,-1.7977,-1.7994,-1.8004,-1.8021,-1.803,-1.8044,-1.8057,-1.8064,-1.8077,-1.809,-1.8105,-1.8114,-1.8132,-1.8137,-1.8142,-1.8144,-1.8141,-1.8141,-1.8147,-1.8146,-1.8149,-1.8149,-1.8149,-1.8148,0,-1.7946,-1.7956,-1.7976,-1.7994,-1.7999,-1.801,-1.8026,-1.8037,-1.8047,-1.8064,-1.8068,-1.8083,-1.8101,-1.8113,-1.8136,-1.8142,-1.8162,-1.8164,-1.8156,-1.8157,-1.8166,-1.8164,-1.8191,-1.8195,-1.8179,-1.8179,-1.8179,0,-1.7955,-1.7966,-1.7985,-1.7994,-1.8003,-1.8018,-1.8028,-1.8039,-1.805,-1.8069,-1.8078,-1.8096,-1.8111,-1.8139,-1.8152,-1.817,-1.8172,-1.818,-1.8175,-1.8171,-1.8172,-1.8171,-1.8172,-1.8181,-1.8181,-1.8181,-1.8181,0,-1.7971,-1.7975,-1.799,-1.8006,-1.8018,-1.8031,-1.8045,-1.8052,-1.8065,-1.8077,-1.8095,-1.8106,-1.8129,-1.8147,-1.8166,-1.8177,-1.8181,-1.8183,-1.8186,-1.8182,-1.8177,-1.818,-1.8158,-1.8182,-1.8182,-1.8182,-1.8182,-1.8182,-1.798,-1.7991,-1.8005,-1.8021,-1.8032,-1.8045,-1.8056,-1.8067,-1.8082,-1.8101,-1.8107,-1.8125,-1.8141,-1.8167,-1.8178,-1.8193,-1.8192,-1.8196,-1.8198,-1.8198,-1.8198,-1.8175,-1.8196,-1.8196,-1.8196,-1.8196,-1.8196,0,-1.7996,-1.8006,-1.802,-1.8039,-1.8051,-1.8054,-1.8069,-1.808,-1.8096,-1.811,-1.8124,-1.8145,-1.8162,-1.8177,-1.8195,-1.8205,-1.8207,-1.8209,-1.8208,-1.8211,-1.8198,-1.8193,-1.8207,-1.8207,-1.8207,-1.8207,-1.8207,-1.8207,-1.8006,-1.8023,-1.803,-1.8053,-1.8063,-1.8081,-1.8089,-1.8101,-1.8113,-1.8135,-1.8149,-1.8159,-1.8173,-1.8193,-1.8209,-1.8213,-1.822,-1.8221,-1.8225,-1.8213,-1.8212,-1.821,-1.8206,-1.8222,-1.8222,-1.8237,-1.8237,-1.8237]},{"header":{"parameterUnit":"m.s-1","parameterCategory":1,"la1":30.2991,"la2":30.254,"lo1":-89.0895,"lo2":-89.0444,"dy":0.0017,"dx":0.0017,"nx":28,"ny":28,"refTime":"2025-03-17T21:00:00:Z","depth":0,"parameterNumber":3,"parameterNumberName":"V-component_of_WINDS"},"data":[0,0,0,0,0,0,0,0,0,0,0,0,0,0,0,0,0,0,0,0,0,0,0,0,0,0,0,0,0,0,0,0,0,0,0,0,0,0,0,0,0,0,0,0,0,0,0,0,0,0,0,0,0,0,0,0,0,0,5.866,5.8661,0,5.8773,5.8775,5.8776,5.8742,5.874,5.8738,5.8735,5.8846,5.8851,5.8856,0,0,0,0,0,0,0,0,0,0,0,0,0,5.8409,5.8414,5.866,5.8661,5.8663,5.8773,5.8775,5.8776,5.8743,5.874,5.8737,5.8734,5.8844,5.885,5.8856,0,0,0,0,0,0,0,0,0,0,0,0,0,5.852,5.8416,5.866,5.8659,5.8661,5.8773,5.8775,5.8777,5.8743,5.874,5.8736,5.8733,5.8842,5.8849,5.8857,5.8975,0,0,5.888,5.8884,0,0,0,0,0,0,0,0,5.8513,5.8529,5.8658,5.866,5.8661,5.874,5.8727,5.8843,5.8744,5.8712,5.8735,5.8731,5.8813,5.8823,5.8852,5.898,5.8984,5.8881,5.8886,5.8889,5.8891,0,0,0,0,0,0,0,5.8506,5.8524,5.8705,5.866,5.8662,5.8652,5.8664,5.8749,5.878,5.8714,5.8712,5.8726,5.8813,5.8844,5.8854,5.8986,5.8881,5.8888,5.8893,5.8896,5.9216,5.922,0,0,0,0,0,0,5.8498,5.8518,5.8701,5.8708,5.8577,5.8659,5.8673,5.8718,5.8779,5.8786,5.8729,5.8724,5.8833,5.8845,5.8858,5.9,5.8889,5.8896,5.8901,5.9212,5.9217,5.9221,0,0,0,0,0,0,5.8493,5.8515,5.8696,5.8612,5.8635,5.8667,5.8719,5.8722,5.8754,5.8791,5.8796,5.8756,5.8831,5.8847,5.8946,5.9003,5.89,5.8907,5.9208,5.9214,5.9219,5.9284,0,0,0,0,0,0,5.8486,5.8513,5.8559,5.8614,5.8639,5.8785,5.8722,5.8727,5.8768,5.8762,5.8817,5.8822,5.8829,5.8935,5.8954,5.9012,5.8913,5.9203,5.921,5.9217,5.9277,5.9291,5.9304,0,0,0,0,0,5.8477,5.8571,5.8562,5.8584,5.8698,5.8788,5.8803,5.881,5.8772,5.8818,5.8842,5.8821,5.8994,5.8945,5.8966,5.9027,5.9199,5.9208,5.9217,5.9271,5.9289,5.9303,0,0,0,0,0,0,5.852,5.8579,5.8568,5.8684,5.8732,5.8782,5.884,5.8828,5.8886,5.8879,5.8883,5.8896,5.8998,5.9022,5.8968,5.9144,5.9091,5.9104,5.9125,5.9142,5.9155,5.9146,5.8919,0,0,0,0,0,5.8544,5.8614,5.866,5.8757,5.8782,5.8808,5.8847,5.8849,5.8897,5.8917,5.8948,5.8995,5.9059,5.9102,5.9163,5.928,5.9291,5.9333,5.9346,5.9357,5.9368,5.9432,5.945,5.925,5.925,5.925,0,0,5.8592,5.8633,5.8676,5.8767,5.8805,5.8875,5.8824,5.8901,5.8954,5.8928,5.9024,5.9049,5.9101,5.921,5.9259,5.9233,5.9426,5.9368,5.9376,5.9382,5.9443,5.9461,5.9478,5.9256,5.9255,5.9254,0,0,5.8716,5.8755,5.884,5.8879,5.8937,5.8953,5.8974,5.9027,5.9043,5.914,5.9123,5.9184,5.9295,5.9333,5.9367,5.9507,5.949,5.9527,5.9597,5.9659,5.9674,5.9688,5.9738,5.9756,5.9538,5.9539,5.9539,0,5.8769,5.8877,5.8885,5.8965,5.9005,5.8987,5.9073,5.9109,5.9184,5.9211,5.9182,5.9322,5.9356,5.9473,5.9508,5.9536,5.9559,5.9521,5.9672,5.9686,5.9699,5.9746,5.9765,5.9543,5.9542,5.9542,5.9541,0,5.8938,5.9013,5.9075,5.915,5.9197,5.9279,5.9298,5.9345,5.9343,5.9362,5.946,5.9501,5.9571,5.9599,5.9596,5.9716,5.9698,5.967,5.9616,5.9722,5.9767,5.9785,5.9549,5.9547,5.9546,5.9545,0,0,5.9092,5.9172,5.9194,5.9228,5.9291,5.9348,5.9429,5.9499,5.9539,5.9591,5.9658,5.9753,5.9729,5.9767,5.9769,5.9823,5.9932,5.9789,5.979,5.9814,6.0065,6.0086,6.0107,5.9921,5.9924,5.9927,6.0061,0,5.9222,5.9367,5.9377,5.9507,5.9576,5.956,5.963,5.9676,5.9696,5.9756,5.9777,5.9845,5.9807,5.983,5.9883,5.9907,5.9982,5.9898,5.9982,5.9985,5.9969,6.013,6.0152,6.0276,6.0078,6.0081,6.0084,0,5.9392,5.9452,5.9589,5.9643,5.9672,5.9736,5.9801,5.986,5.991,5.9921,5.9965,5.9959,6.0041,5.9985,6.0096,6.0039,6.0074,6.0091,6.0096,6.0103,6.004,6.0142,6.0316,6.0335,6.0111,6.0109,6.0107,0,5.9491,5.9605,5.9702,5.9732,5.9797,5.9842,5.9871,5.9918,5.996,6.0016,6.0043,6.0108,6.0143,6.0193,6.0204,6.0162,6.0316,6.0261,6.0326,6.0325,6.0358,6.0356,6.0541,6.0381,6.0381,6.0381,6.038,0,5.9634,5.9719,5.9748,5.9807,5.9901,5.9912,6.0004,6.003,6.0072,6.0135,6.0125,6.0184,6.0196,6.0258,6.0267,6.0358,6.0374,6.0383,6.0385,6.0385,6.0383,6.0407,6.0398,6.0386,6.0385,6.0384,6.0383,0,5.976,5.9783,5.9888,5.9942,5.9957,6.0024,6.0069,6.0126,6.0145,6.0225,6.0245,6.0274,6.0346,6.0363,6.0447,6.0453,6.0561,6.0554,6.0545,6.0544,6.0608,6.0602,6.0814,6.0842,6.0665,6.0667,6.0668,0,5.985,5.9915,5.9977,6.002,6.0052,6.012,6.0163,6.0176,6.0221,6.0284,6.0333,6.0404,6.0461,6.0576,6.0604,6.0668,6.0663,6.0733,6.0672,6.067,6.0663,6.0659,6.0666,6.0744,6.0746,6.0747,6.0749,0,6.0008,6.0016,6.008,6.0148,6.0201,6.0254,6.0305,6.034,6.036,6.0411,6.0485,6.053,6.0617,6.0688,6.0753,6.078,6.0768,6.0768,6.0786,6.0786,6.0778,6.0783,6.0576,6.0763,6.0761,6.076,6.0759,6.0759,6.0118,6.0176,6.0228,6.03,6.034,6.0389,6.0445,6.0472,6.0535,6.0608,6.0611,6.0692,6.0741,6.0827,6.0859,6.0921,6.0899,6.0926,6.0933,6.0939,6.0945,6.0769,6.0933,6.0933,6.0932,6.0932,6.0932,0,6.0275,6.0309,6.0374,6.0448,6.0504,6.0489,6.0545,6.0592,6.0664,6.0712,6.0769,6.0855,6.0923,6.0957,6.1024,6.1067,6.1063,6.1084,6.1081,6.1087,6.0961,6.0938,6.1086,6.1086,6.1086,6.1086,6.1086,6.1086,6.0363,6.046,6.0474,6.059,6.0622,6.0704,6.0737,6.0781,6.0819,6.0915,6.0973,6.0995,6.1037,6.1107,6.1169,6.1177,6.1202,6.1226,6.1231,6.1112,6.1096,6.1081,6.106,6.1231,6.1232,6.1352,6.1354,6.1354]}]]